GW2468 Weather Reports


time (UTC)temp
C
wind
direction
speed
KPH
gust
KPH
rain 1hr
cm
rain 24hr
cm
rain mn
cm
humidity
%
barometer
mb
20260510095356 9 222 0.0 0.0 0.00 0.00 0.00 99 1011.9
20260510094856 9 222 0.0 0.0 0.00 0.00 0.00 99 1011.6
20260510094351 9 222 0.0 0.0 0.00 0.00 0.00 99 1011.5
20260510093848 9 224 0.0 0.0 0.00 0.00 0.00 99 1011.5
20260510093344 9 213 0.0 0.0 0.00 0.00 0.00 99 1011.5
20260510092840 9 214 0.0 0.0 0.00 0.00 0.00 99 1011.8
20260510092336 9 213 0.0 0.0 0.00 0.00 0.00 99 1011.4
20260510091832 9 213 0.0 0.0 0.00 0.00 0.00 99 1011.3
20260510091330 9 212 0.0 0.0 0.00 0.00 0.00 99 1011.2
20260510090826 9 212 0.0 0.0 0.00 0.00 0.00 99 1011.3
20260510090323 9 212 0.0 0.0 0.00 0.00 0.00 99 1011.5
20260510085819 9 212 0.0 0.0 0.00 0.00 0.00 99 1011.0
20260510085318 9 212 0.0 0.0 0.00 0.00 0.00 99 1011.2
20260510084814 9 210 0.0 0.0 0.00 0.00 0.00 99 1011.0
20260510084312 9 210 0.0 0.0 0.00 0.00 0.00 99 1010.8
20260510083808 9 209 0.0 0.0 0.00 0.00 0.00 99 1011.0
20260510083306 9 210 0.0 0.0 0.00 0.00 0.00 99 1011.1
20260510082801 9 210 0.0 0.0 0.00 0.00 0.00 99 1011.0
20260510082258 9 203 0.0 0.0 0.00 0.00 0.00 99 1011.1
20260510081756 9 199 0.0 0.0 0.00 0.00 0.00 99 1011.2
20260510081253 9 199 0.0 0.0 0.00 0.00 0.00 99 1011.2
20260510080749 10 199 0.0 0.0 0.00 0.00 0.00 99 1011.1
20260510080244 10 199 0.0 0.0 0.00 0.00 0.00 99 1011.2
20260510075741 10 198 0.0 0.0 0.00 0.00 0.00 99 1011.3
20260510075239 10 197 0.0 0.0 0.00 0.00 0.00 99 1011.1
20260510074736 10 315 0.0 0.0 0.00 0.00 0.00 99 1011.1
20260510074232 10 323 0.0 0.0 0.00 0.00 0.00 99 1011.4
20260510073728 10 323 0.0 0.0 0.00 0.00 0.00 99 1011.5
20260510073224 10 335 0.0 0.0 0.00 0.00 0.00 99 1012.2
20260510072720 10 335 0.0 0.0 0.00 0.00 0.00 99 1012.0
20260510072217 10 334 0.0 0.0 0.00 0.00 0.00 99 1012.2
20260510071714 10 334 0.0 0.0 0.00 0.00 0.00 99 1012.0
20260510071210 10 335 0.0 0.0 0.00 0.00 0.00 99 1012.1
20260510070708 10 335 0.0 0.0 0.00 0.00 0.00 99 1012.1
20260510070205 10 335 0.0 0.0 0.00 0.00 0.00 99 1012.1
20260510065700 10 335 0.0 0.0 0.00 0.00 0.00 99 1012.1
20260510065157 10 334 0.0 0.0 0.00 0.00 0.00 99 1012.4
20260510064653 10 335 0.0 0.0 0.00 0.00 0.00 99 1012.1
20260510064150 10 335 0.0 0.0 0.00 0.00 0.00 99 1012.1
20260510063648 10 340 0.0 0.0 0.00 0.00 0.00 99 1012.2
20260510063144 10 349 0.0 0.0 0.00 0.00 0.00 99 1012.4
20260510062640 10 311 0.0 0.0 0.00 0.00 0.00 99 1012.5
20260510062136 10 311 0.0 0.0 0.00 0.00 0.00 99 1012.5
20260510061632 10 348 0.0 0.0 0.00 0.00 0.00 99 1012.3
20260510061130 10 205 0.0 0.0 0.00 0.00 0.00 99 1011.5
20260510060625 10 205 0.0 0.0 0.00 0.00 0.00 99 1011.4
20260510060122 10 206 0.0 0.0 0.00 0.00 0.00 99 1011.5
20260510055618 10 205 0.0 0.0 0.00 0.00 0.00 99 1011.5
20260510055117 10 208 0.0 0.0 0.00 0.00 0.00 99 1011.4
20260510054611 10 207 0.0 0.0 0.00 0.00 0.00 99 1011.8
20260510054107 10 206 0.0 0.0 0.00 0.00 0.00 99 1011.8
20260510053607 10 203 0.0 0.0 0.00 0.00 0.00 99 1011.9
20260510053104 10 203 0.0 0.0 0.00 0.00 0.00 99 1011.6
20260510052559 10 202 0.0 0.0 0.00 0.00 0.00 99 1011.6
20260510052056 10 202 0.0 0.0 0.00 0.00 0.00 99 1011.9
20260510051551 10 207 0.0 0.0 0.00 0.00 0.00 99 1011.6
20260510051048 10 207 0.0 0.0 0.00 0.00 0.00 99 1011.8
20260510050540 10 208 0.0 0.0 0.00 0.00 0.00 99 1011.6
20260510050037 10 207 0.0 0.0 0.00 0.00 0.00 99 1011.5
20260510045534 10 183 0.0 0.0 0.00 0.00 0.00 99 1011.4
20260510045030 10 228 0.0 0.0 0.00 0.00 0.00 99 1011.5
20260510044527 10 227 0.0 0.0 0.00 0.00 0.00 99 1011.1
20260510044025 10 219 0.0 0.0 0.00 0.00 0.00 99 1011.4
20260510043520 10 224 0.0 0.0 0.00 0.00 0.00 99 1011.2
20260510043015 10 223 0.0 0.0 0.00 0.00 0.00 99 1010.9
20260510042509 10 197 0.0 0.0 0.00 0.00 0.00 99 1011.1
20260510042004 10 219 0.0 0.0 0.00 0.00 0.00 99 1011.0
20260510041502 10 202 0.0 0.0 0.00 0.00 0.00 99 1011.2
20260510041000 10 199 0.0 0.0 0.00 0.00 0.00 99 1011.5
20260510040456 10 193 0.0 0.0 0.00 0.00 0.00 99 1011.0
20260510035951 10 193 0.0 0.0 0.00 0.94 0.94 99 1011.2
20260510035443 10 193 0.0 0.0 0.00 0.94 0.94 99 1011.2
20260510034942 10 192 0.0 0.0 0.00 0.94 0.94 99 1011.2
20260510034442 10 196 0.0 0.0 0.00 0.94 0.94 99 1011.1
20260510033937 10 194 0.0 0.0 0.00 0.94 0.94 99 1011.0
20260510033433 10 191 0.0 0.0 0.00 0.94 0.94 99 1010.8
20260510032931 10 199 0.0 0.0 0.00 0.94 0.94 99 1011.1
20260510032428 10 196 0.0 0.0 0.00 0.94 0.94 99 1011.2
20260510031922 10 196 0.0 0.0 0.00 0.94 0.94 99 1011.0
20260510031418 10 203 0.0 0.0 0.00 0.94 0.94 99 1011.1
20260510030913 10 204 0.0 0.0 0.00 0.94 0.94 99 1010.9
20260510030410 10 197 0.0 0.0 0.00 0.94 0.94 99 1010.8
20260510025907 10 192 0.0 0.0 0.00 0.94 0.94 99 1010.9
20260510025405 10 193 0.0 0.0 0.00 0.94 0.94 99 1010.9
20260510024902 10 191 0.0 0.0 0.00 0.94 0.94 99 1010.9
20260510024358 10 198 0.0 0.0 0.00 0.94 0.94 99 1010.9
20260510023854 10 196 0.0 0.0 0.00 0.94 0.94 99 1010.9
20260510023350 10 200 0.0 0.0 0.00 0.94 0.94 99 1011.0
20260510022848 10 201 0.0 0.0 0.00 0.94 0.94 99 1010.9
20260510022347 10 200 0.0 0.0 0.00 0.94 0.94 99 1011.2
20260510021846 10 201 0.0 0.0 0.00 0.94 0.94 99 1011.3
20260510021344 10 193 0.0 0.0 0.00 0.94 0.94 99 1011.2
20260510020841 10 198 0.0 0.0 0.00 0.94 0.94 99 1011.2
20260510020341 10 197 0.0 0.0 0.00 0.94 0.94 99 1011.0
20260510015837 10 196 0.0 0.0 0.00 0.94 0.94 99 1011.1
20260510015332 10 196 0.0 0.0 0.00 0.94 0.94 99 1011.0
20260510014828 10 196 0.0 0.0 0.00 0.94 0.94 99 1010.9
20260510014326 10 196 0.0 0.0 0.00 0.94 0.94 99 1010.9
20260510013821 10 196 0.0 0.0 0.00 0.94 0.94 99 1010.9
20260510013317 10 196 0.0 0.0 0.00 0.94 0.94 99 1011.0
20260510012812 10 196 0.0 0.0 0.00 0.94 0.94 99 1011.1
20260510012312 10 196 0.0 0.0 0.00 0.94 0.94 99 1010.9
20260510011807 10 196 0.0 0.0 0.00 0.94 0.94 99 1010.7
20260510011303 10 196 0.0 0.0 0.00 0.94 0.94 99 1010.8
20260510010800 10 196 0.0 0.0 0.00 0.94 0.94 99 1010.6
20260510010256 10 196 0.0 0.0 0.00 0.94 0.94 99 1010.8
20260510005753 10 195 0.0 0.0 0.00 0.94 0.94 99 1010.7
20260510005249 10 196 0.0 0.0 0.00 0.94 0.94 99 1010.9
20260510004748 10 196 0.0 0.0 0.00 0.94 0.94 99 1010.8
20260510004245 10 196 0.0 0.0 0.00 0.94 0.94 99 1010.6
20260510003742 10 196 0.0 0.0 0.00 0.94 0.94 99 1010.4
20260510003239 10 195 0.0 0.0 0.00 0.94 0.94 99 1010.7
20260510002737 11 196 0.0 0.0 0.00 0.94 0.94 99 1010.5
20260510002235 11 196 0.0 0.0 0.00 0.94 0.94 99 1010.4
20260510001731 11 196 0.0 0.0 0.00 0.94 0.94 99 1010.1
20260510001230 11 196 0.0 0.0 0.00 0.94 0.94 99 1010.3
20260510000726 11 196 0.0 0.0 0.00 0.94 0.94 99 1010.1
20260510000226 11 196 0.0 0.0 0.00 0.94 0.94 99 1009.9
20260509235720 11 196 0.0 0.0 0.00 0.94 0.94 99 1010.3
20260509235216 11 195 0.0 0.0 0.00 0.94 0.94 99 1009.9
20260509234712 11 197 0.0 0.0 0.00 0.94 0.94 99 1009.6
20260509234209 11 199 0.0 0.0 0.00 0.94 0.94 99 1009.8
20260509233707 11 198 0.0 0.0 0.00 0.94 0.94 99 1009.8
20260509233159 11 198 0.0 0.0 0.00 0.94 0.94 99 1009.7
20260509232655 11 198 0.0 0.0 0.00 0.94 0.94 98 1009.8
20260509232152 11 198 0.0 0.0 0.00 0.94 0.94 97 1009.5
20260509231648 11 199 0.0 0.0 0.00 0.94 0.94 97 1009.5
20260509231146 11 205 0.0 0.0 0.00 0.94 0.94 97 1009.6
20260509230643 12 195 0.0 0.0 0.00 0.94 0.94 97 1009.6
20260509230140 12 195 0.0 0.0 0.00 0.94 0.94 96 1009.6
20260509225635 12 194 0.0 0.0 0.00 0.94 0.94 96 1009.4
20260509225131 12 196 0.0 0.0 0.00 0.94 0.94 96 1009.4
20260509224626 12 199 0.0 0.0 0.00 0.94 0.94 95 1009.7
20260509224124 12 201 0.0 0.0 0.00 0.94 0.94 96 1009.6
20260509223621 12 201 0.0 0.0 0.00 0.94 0.94 95 1009.7
20260509223118 12 200 0.0 0.0 0.00 0.94 0.94 95 1010.0
20260509222614 12 199 0.0 0.0 0.00 0.94 0.94 96 1009.6
20260509222110 12 204 0.0 0.0 0.00 0.94 0.94 96 1009.7
20260509221606 12 240 0.0 0.0 0.00 0.94 0.94 97 1009.9
20260509221102 12 240 0.0 0.0 0.00 0.94 0.94 97 1009.7
20260509220558 12 240 0.0 0.0 0.00 0.94 0.94 98 1010.0
20260509220055 11 240 0.0 0.0 0.00 0.94 0.94 98 1009.9
20260509215550 11 231 0.0 0.0 0.00 0.94 0.94 98 1009.8
20260509215048 11 230 0.0 0.0 0.00 0.94 0.94 99 1010.2
20260509214545 11 195 0.0 0.0 0.00 0.94 0.94 99 1010.2
20260509214042 11 234 0.0 0.0 0.00 0.94 0.94 99 1010.1
20260509213538 11 238 0.0 0.0 0.00 0.94 0.94 99 1010.2
20260509213035 11 254 0.0 0.0 0.00 0.94 0.94 99 1010.0
20260509212532 11 240 0.0 0.0 0.00 0.94 0.94 99 1010.3
20260509212029 11 232 0.0 0.0 0.00 0.94 0.94 99 1010.0
20260509211524 11 245 0.0 0.0 0.00 0.94 0.94 99 1010.2
20260509211021 10 257 0.0 0.0 0.00 0.94 0.94 99 1010.2
20260509210518 10 257 0.0 0.0 0.00 0.94 0.94 99 1010.0
20260509210014 10 257 0.0 0.0 0.00 0.94 0.94 99 1010.1
20260509205509 10 257 0.0 0.0 0.00 0.94 0.94 99 1010.1
20260509205005 10 197 0.0 0.0 0.00 0.94 0.94 99 1010.1
20260509204501 10 196 0.0 0.0 0.00 0.94 0.94 99 1010.1
20260509203957 10 216 0.0 0.0 0.00 0.94 0.94 99 1010.3
20260509203453 10 216 0.0 0.0 0.18 0.94 0.94 99 1010.3
20260509202951 10 230 0.0 0.0 0.18 0.94 0.94 99 1010.3
20260509202447 10 230 0.0 0.0 0.18 0.94 0.94 99 1010.5
20260509201942 10 229 0.0 0.0 0.18 0.91 0.91 99 1010.3
20260509201437 10 229 0.0 0.0 0.18 0.91 0.91 99 1010.6
20260509200935 10 229 0.0 0.0 0.13 0.89 0.89 99 1010.5
20260509200434 10 227 0.0 0.0 0.13 0.89 0.89 99 1010.4
20260509195931 10 251 0.0 0.0 0.00 0.86 0.86 99 1010.5
20260509195421 10 250 0.0 0.0 0.00 0.86 0.86 99 1010.6
20260509194914 10 251 0.0 0.0 0.00 0.86 0.86 99 1010.8
20260509194411 10 234 0.0 0.0 0.00 0.86 0.86 99 1010.9
20260509193908 10 196 0.0 0.0 0.00 0.86 0.86 99 1010.8
20260509193407 10 196 0.0 0.0 0.00 0.86 0.86 99 1011.3
20260509192903 10 196 0.0 0.0 0.18 0.86 0.86 99 1011.0
20260509192400 10 202 0.0 0.0 0.18 0.86 0.86 99 1011.1
20260509191855 10 212 0.0 0.0 0.30 0.86 0.86 99 1011.1
20260509191351 10 213 0.0 0.0 0.30 0.84 0.84 99 1011.2
20260509190847 10 228 0.0 0.0 0.18 0.81 0.81 99 1011.4
20260509190344 10 233 0.0 0.0 0.13 0.79 0.79 99 1011.3
20260509185842 10 256 0.0 0.0 0.13 0.79 0.79 99 1011.4
20260509185338 10 229 0.0 0.0 0.00 0.76 0.76 99 1011.4
20260509184836 10 229 0.0 0.0 0.18 0.76 0.76 99 1011.4
20260509184332 10 235 0.0 0.0 0.18 0.76 0.76 99 1011.6
20260509183829 10 222 0.0 0.0 0.13 0.74 0.74 99 1011.5
20260509183324 10 225 0.0 0.0 0.30 0.74 0.74 99 1011.4
20260509182821 10 214 0.0 0.0 0.30 0.71 0.71 99 1011.4
20260509182318 10 236 0.0 0.0 0.30 0.69 0.69 99 1011.4
20260509181815 10 220 0.0 0.0 0.18 0.66 0.66 99 1011.6
20260509181313 10 230 0.0 0.0 0.13 0.64 0.64 99 1011.3
20260509180810 10 225 0.0 0.0 0.48 0.64 0.64 99 1011.6
20260509180306 10 221 0.0 0.0 0.48 0.61 0.61 99 1011.4
20260509175802 10 214 0.0 0.0 0.30 0.58 0.58 99 1011.6
20260509175259 10 234 0.0 0.0 0.30 0.56 0.56 99 1011.8
20260509174754 10 211 0.0 0.0 0.30 0.53 0.53 99 1011.8
20260509174250 10 220 0.0 0.0 0.13 0.51 0.51 99 1011.6
20260509173746 10 220 0.0 0.0 0.18 0.48 0.48 99 1011.6
20260509173242 10 217 0.0 0.0 0.18 0.48 0.48 99 1011.4
20260509172738 10 202 0.0 0.0 0.00 0.46 0.46 99 1011.5
20260509172235 10 226 0.0 0.0 0.13 0.46 0.46 99 1011.4
20260509171731 10 223 0.0 0.0 0.13 0.46 0.46 99 1011.4
20260509171227 10 230 0.0 0.0 0.00 0.43 0.43 99 1011.2
20260509170724 10 234 0.0 0.0 0.00 0.43 0.43 99 1011.5
20260509170220 10 224 0.0 0.0 0.18 0.43 0.43 99 1011.4
20260509165718 10 227 0.0 0.0 0.18 0.43 0.43 99 1011.4
20260509165214 10 229 0.0 0.0 0.00 0.41 0.41 99 1011.6
20260509164710 10 235 0.0 0.0 0.00 0.41 0.41 99 1011.9
20260509164206 10 212 0.0 0.0 0.13 0.41 0.41 99 1011.6
20260509163703 10 219 0.0 0.0 0.13 0.41 0.41 99 1011.6
20260509163200 10 169 0.0 0.0 0.00 0.38 0.38 99 1011.5
20260509162657 10 235 0.0 0.0 0.00 0.38 0.38 99 1011.5
20260509162153 10 189 0.0 0.0 0.00 0.38 0.38 99 1011.8
20260509161649 10 282 0.0 0.0 0.00 0.38 0.38 99 1011.9
20260509161144 10 283 0.0 0.0 0.00 0.38 0.38 99 1011.9
20260509160640 10 283 0.0 0.0 0.00 0.38 0.38 99 1011.9
20260509160135 10 283 0.0 0.0 0.00 0.38 0.38 99 1011.9
20260509155632 10 283 0.0 0.0 0.00 0.38 0.38 99 1011.8
20260509155128 10 284 0.0 0.0 0.00 0.38 0.38 99 1011.5
20260509154624 10 287 0.0 0.0 0.00 0.38 0.38 99 1011.6
20260509154121 10 286 0.0 0.0 0.00 0.38 0.38 99 1012.0
20260509153618 10 287 0.0 0.0 0.00 0.38 0.38 99 1011.8
20260509153115 10 287 0.0 0.0 0.00 0.38 0.38 99 1012.2
20260509152611 10 287 0.0 0.0 0.18 0.38 0.38 99 1012.1
20260509152109 10 287 0.0 0.0 0.18 0.38 0.38 99 1012.4
20260509151604 9 287 0.0 0.0 0.00 0.36 0.36 99 1012.2
20260509151103 10 287 0.0 0.0 0.00 0.36 0.36 99 1012.3
20260509150600 10 288 0.0 0.0 0.13 0.36 0.36 99 1012.5
20260509150058 9 288 0.0 0.0 0.13 0.36 0.36 99 1012.4
20260509145554 9 288 0.0 0.0 0.00 0.33 0.33 99 1012.2
20260509145049 9 288 0.0 0.0 0.18 0.33 0.33 99 1012.2
20260509144546 9 288 0.0 0.0 0.18 0.33 0.33 99 1012.5
20260509144043 9 288 0.0 0.0 0.18 0.33 0.33 99 1012.3
20260509143540 9 289 0.0 0.0 0.00 0.30 0.30 99 1012.2
20260509143032 9 289 0.0 0.0 0.00 0.30 0.30 99 1012.3
20260509142527 9 289 0.0 0.0 0.00 0.30 0.30 99 1012.1
20260509142023 9 292 0.0 0.0 0.13 0.30 0.30 99 1012.1
20260509141520 9 294 0.0 0.0 0.13 0.30 0.30 99 1011.9
20260509141017 9 291 0.0 0.0 0.00 0.28 0.28 99 1012.1
20260509140513 9 286 0.0 0.0 0.00 0.28 0.28 99 1012.0
20260509140012 8 287 0.0 0.0 0.00 0.28 0.28 99 1012.0
20260509135508 8 287 0.0 0.0 0.00 0.28 0.28 99 1012.0
20260509135006 8 287 0.0 0.0 0.00 0.28 0.28 99 1012.1
20260509134503 8 287 0.0 0.0 0.00 0.28 0.28 99 1011.8
20260509134001 8 287 0.0 0.0 0.00 0.28 0.28 99 1011.9
20260509133457 8 288 0.0 0.0 0.00 0.28 0.28 99 1011.9
20260509132955 8 290 0.0 0.0 0.18 0.28 0.28 99 1012.2
20260509132453 8 290 0.0 0.0 0.18 0.28 0.28 99 1012.2
20260509131950 8 290 0.0 0.0 0.00 0.25 0.25 99 1012.2
20260509131447 8 290 0.0 0.0 0.00 0.25 0.25 99 1012.4
20260509130943 8 290 0.0 0.0 0.00 0.25 0.25 99 1012.2
20260509130439 8 290 0.0 0.0 0.00 0.25 0.25 99 1012.6
20260509125936 8 292 0.0 0.0 0.00 0.25 0.25 99 1012.3
20260509125433 8 294 0.0 0.0 0.00 0.25 0.25 99 1012.2
20260509124929 8 294 0.0 0.0 0.00 0.25 0.25 99 1012.2
20260509124426 8 295 0.0 0.0 0.00 0.25 0.25 99 1012.2
20260509123923 8 296 0.0 0.0 0.00 0.25 0.25 99 1012.1
20260509123420 8 296 0.0 0.0 0.00 0.25 0.25 99 1012.1
20260509122916 8 298 0.0 0.0 0.00 0.25 0.25 99 1012.4
20260509122413 8 299 0.0 0.0 0.00 0.25 0.25 99 1012.3
20260509121910 8 299 0.0 0.0 0.00 0.25 0.25 99 1012.3
20260509121407 8 301 0.0 0.0 0.00 0.25 0.25 99 1012.4
20260509120905 8 301 0.0 0.0 0.00 0.25 0.25 99 1012.3
20260509120402 8 302 0.0 0.0 0.00 0.25 0.25 99 1012.1
20260509115900 8 302 0.0 0.0 0.00 0.25 0.25 99 1011.9
20260509115357 8 302 0.0 0.0 0.00 0.25 0.25 99 1012.0
20260509114855 7 302 0.0 0.0 0.00 0.25 0.25 99 1012.0
20260509114354 7 302 0.0 0.0 0.00 0.25 0.25 99 1012.1
20260509113852 7 302 0.0 0.0 0.18 0.25 0.25 99 1012.0
20260509113349 7 302 0.0 0.0 0.18 0.25 0.25 99 1012.2
20260509112846 7 302 0.0 0.0 0.00 0.23 0.23 99 1012.2
20260509112343 7 302 0.0 0.0 0.00 0.23 0.23 99 1012.0
20260509111840 7 302 0.0 0.0 0.00 0.23 0.23 99 1012.1
20260509111337 7 302 0.0 0.0 0.00 0.23 0.23 99 1012.1
20260509110835 7 301 0.0 0.0 0.00 0.23 0.23 99 1012.0
20260509110331 7 301 0.0 0.0 0.00 0.23 0.23 99 1012.4
20260509105829 7 302 0.0 0.0 0.00 0.23 0.23 99 1012.2
20260509105327 7 302 0.0 0.0 0.13 0.23 0.23 99 1012.4
20260509104823 7 301 0.0 0.0 0.13 0.23 0.23 99 1012.4
20260509104320 7 301 0.0 0.0 0.00 0.20 0.20 99 1012.4
20260509103818 7 301 0.0 0.0 0.00 0.20 0.20 99 1012.3
20260509103315 7 301 0.0 0.0 0.00 0.20 0.20 99 1012.3
20260509102814 7 301 0.0 0.0 0.00 0.20 0.20 99 1012.4
20260509102310 7 302 0.0 0.0 0.00 0.20 0.20 99 1012.3
20260509101806 7 302 0.0 0.0 0.00 0.20 0.20 99 1012.0
20260509101303 7 302 0.0 0.0 0.00 0.20 0.20 99 1012.1
20260509100800 7 302 0.0 0.0 0.00 0.20 0.20 99 1012.1
20260509100257 7 302 0.0 0.0 0.00 0.20 0.20 99 1012.2
20260509095754 7 302 0.0 0.0 0.00 0.20 0.20 99 1012.1